sat.trackr.live / text

‹ back to catalog

RADUGA-1M 3

NORAD 39375 · 2013-062A

PAYLOAD ACTIVE UNKNOWN

§ Identity

Operator
Country
CIS
Launch date
2013-11-11
Launch site
TYMSC
Launch vehicle
Mass (kg)
RCS (m²)
63.10

Purposes: comms

External: N2YO · Heavens-Above · Gunter

§ Orbital elements

Epoch: 2026-09-04T03:53:51.440352Z

Period
1,436.10 min
Inclination
6.1545°
Eccentricity
0.0002078
Mean motion
1.00271707 rev/d
Perigee alt
35,777.9 km
Apogee alt
35,795.4 km
Semi-major
42,164.8 km
B*
0.0000e+0
RAAN
71.3240°
Arg perigee
297.2597°
Mean anomaly
68.1302°
Rev number
4,690

§ Raw data

RADUGA-1M 31 39375U 13062A   26247.16240093  .00000147  00000+0  00000+0 0  99952 39375   6.1545  71.3240 0002078 297.2597  68.1302  1.00271707 46909

JSON: /api/v1/satellites/39375 · /tle

For live sub-satellite position, see the globe view (requires WebGL).

§ Visibility from observer

Set your observer location to see the next 7 days of passes ≥ 10°. The values pass through the URL so the page stays shareable.

No JS? Fill the form by hand. The geolocation button needs JavaScript.